sat.trackr.live / text

‹ back to catalog

EUTELSAT 174A

NORAD 28924 · 2005-052A

PAYLOAD ACTIVE UNKNOWN

§ Identity

Operator
Country
EUTE
Launch date
2005-12-29
Launch site
TYMSC
Launch vehicle
Mass (kg)
RCS (m²)
5.50

Purposes: comms

External: N2YO · Heavens-Above · Gunter

§ Orbital elements

Epoch: 2026-09-03T20:18:37.637280Z

Period
1,436.12 min
Inclination
4.4108°
Eccentricity
0.0006018
Mean motion
1.00270399 rev/d
Perigee alt
35,761.6 km
Apogee alt
35,812.4 km
Semi-major
42,165.1 km
B*
0.0000e+0
RAAN
75.5079°
Arg perigee
88.9825°
Mean anomaly
297.1271°
Rev number
5,312

§ Raw data

EUTELSAT 174A1 28924U 05052A   26246.84626895  .00000004  00000+0  00000+0 0  99972 28924   4.4108  75.5079 0006018  88.9825 297.1271  1.00270399 53123

JSON: /api/v1/satellites/28924 · /tle

For live sub-satellite position, see the globe view (requires WebGL).

§ Visibility from observer

Set your observer location to see the next 7 days of passes ≥ 10°. The values pass through the URL so the page stays shareable.

No JS? Fill the form by hand. The geolocation button needs JavaScript.